sat.trackr.live / text

‹ back to catalog

ONEWEB-0301

NORAD 49090 · 2021-075R

PAYLOAD ACTIVE UNKNOWN

§ Identity

Operator
Country
UK
Launch date
2021-08-21
Launch site
TYMSC
Launch vehicle
Mass (kg)
RCS (m²)

Purposes: comms

External: N2YO · Heavens-Above · Gunter

§ Orbital elements

Epoch: 2026-09-20T03:44:37.447872Z

Period
109.72 min
Inclination
87.8982°
Eccentricity
0.0002208
Mean motion
13.12443309 rev/d
Perigee alt
1,212.0 km
Apogee alt
1,215.4 km
Semi-major
7,591.9 km
B*
-5.1034e-4
RAAN
331.8033°
Arg perigee
95.6322°
Mean anomaly
264.5058°
Rev number
24,702

§ Raw data

ONEWEB-03011 49090U 21075R   26263.15598898 -.00000171  00000+0 -51034-3 0  99952 49090  87.8982 331.8033 0002208  95.6322 264.5058 13.12443309247021

JSON: /api/v1/satellites/49090 · /tle

For live sub-satellite position, see the globe view (requires WebGL).

§ Visibility from observer

Set your observer location to see the next 7 days of passes ≥ 10°. The values pass through the URL so the page stays shareable.

No JS? Fill the form by hand. The geolocation button needs JavaScript.